929 
ASUS46 KSEW 290710
RWRWA 

WASHINGTON REGIONAL WEATHER ROUNDUP
NATIONAL WEATHER SERVICE SEATTLE WA
1200 AM PDT WED MAR 29 2017

NOTE:"FAIR" INDICATES FEW OR NO CLOUDS BELOW 12,000 FEET WITH NO 
SIGNIFICANT WEATHER AND/OR OBSTRUCTIONS TO VISIBILITY.

WAZ507-509-555>559-290800-
SEATTLE, TACOMA, EVERETT, AND VICINITY
  
CITY           SKY/WX    TMP DP  RH WIND       PRES   REMARKS
EVERETT        LGT RAIN  48  40  73 SE24G33   30.12F                  
BOEING FIELD   LGT RAIN  49  44  83 S7        30.14F                  
RENTON         LGT RAIN  49  46  90 CALM      30.14F                  
SEATAC AIRPORT LGT RAIN  47  43  86 S8        30.14F                  
JBLM-MCCHORD   LGT RAIN  45  45 100 S3        30.13F                  
PUYALLUP       DRIZZLE   46  46 100 S5        30.13F                  
BREMERTON      CLOUDY    45  43  93 S10       30.16S                  
JBLM-FT LEWIS  LGT RAIN  46  45  99 SE9       30.12F                  
TACOMA NARROWS LGT RAIN  45  41  86 S10       30.13F                  
$$
 
WAZ001-503-506-510-514-515-290800-
NORTH INTERIOR
  
CITY           SKY/WX    TMP DP  RH WIND       PRES   REMARKS
BELLINGHAM     LGT RAIN  48  44  86 SE13G22   30.08F                  
FRIDAY HARBOR  LGT RAIN  48  45  89 E10G18    30.07F                  
EASTSOUND      LGT RAIN  48  45  87 S8        30.05F                  
PORT ANGELES   CLOUDY    45  45 100 CALM      30.04F                  
EDIZ HOOK      CLOUDY    47  45  93 CALM      30.03F                  
PORT TOWNSEND  CLOUDY    50  41  71 S15G32    30.05F                  
NAS WHIDBEY    LGT RAIN  51  41  68 SE25G35   30.11F                  
ARLINGTON      CLOUDY    46  39  76 SE17      30.14F                  
BURLINGTON     CLOUDY    48  43  81 SE10      30.11S                  
$$
 
WAZ020-022-039-040-504-511-512-290800-
SOUTHWEST INTERIOR
  
CITY           SKY/WX    TMP DP  RH WIND       PRES   REMARKS
SHELTON        LGT RAIN  46  42  86 SE8       30.10F                  
OLYMPIA        LGT RAIN  44  41  89 S9        30.13F                  
CHEHALIS       CLOUDY    46  41  81 S8        30.14F                  
KELSO          RAIN      47  43  86 VRB5      30.17F                  
VANCOUVER      LGT RAIN  49  44  83 E6        30.18F                  
SCAPPOOSE, OR  LGT RAIN  46  44  93 SE3       30.17F                  
PORTLAND, OR   LGT RAIN  48  42  80 E6        30.19F                  
$$
 
WAZ021-516-517-290800-
WASHINGTON COAST
  
CITY           SKY/WX    TMP DP  RH WIND       PRES   REMARKS
FORKS          RAIN      48  47  96 S15G38    30.01F FOG              
HOQUIAM        LGT RAIN  48  47  96 E13       30.07F                  
ASTORIA, OR    LGT RAIN  47  39  74 SE7       30.10F                  
$$
 
WAZ019-023-024-040-567>569-290800-
CASCADE MOUNTAINS AND COLUMBIA GORGE
  
CITY           SKY/WX    TMP DP  RH WIND       PRES   REMARKS
STAMPEDE PASS  NOT AVBL                                               
TROUTDALE, OR  LGT RAIN  49  47  93 E10       30.19F                  
THE DALLES, OR LGT RAIN  50  44  80 NW12      30.18F                  
$$

WAZ026-027-041>044-520-521-290800-
EAST SLOPES
  
CITY           SKY/WX    TMP DP  RH WIND       PRES   REMARKS
OMAK           CLOUDY    48  36  63 S8        30.11F                  
WENATCHEE      CLOUDY    47  37  68 NW5       30.12F                  
ELLENSBURG     CLOUDY    44  38  79 E6        30.13F                  
YAKIMA         CLOUDY    49  39  68 CALM      30.15S                  
SUNNYSIDE ARPT CLOUDY    46  39  78 CALM      30.16F                  
$$

WAZ028-034-035-290800-
COLUMBIA BASIN
  
CITY           SKY/WX    TMP DP  RH WIND       PRES   REMARKS
EPHRATA        CLOUDY    48  35  60 S3        30.12F                  
MOSES LAKE     CLOUDY    49  36  61 S8        30.14F                  
PASCO            N/A    N/A N/A N/A MISG      30.18F                  
HERMISTON, OR  CLOUDY    50  44  80 S7        30.17F                  
$$

WAZ036>038-290800-
NORTHEAST WASHINGTON
  
CITY           SKY/WX    TMP DP  RH WIND       PRES   REMARKS
SPOKANE GEIGER CLOUDY    42  36  79 S9        30.16F                  
SPOKANE FELTS  CLOUDY    44  38  79 E7        30.18F                  
FAIRCHILD AFB  CLOUDY    40  40 100 S9        30.15F                  
COEURDALENE,ID CLOUDY    41  38  89 SE9       30.18F                  
DEER PARK      CLOUDY    42  38  85 CALM      30.18F                  
$$

WAZ029>033-290800-
SOUTHEAST WASHINGTON
  
CITY           SKY/WX    TMP DP  RH WIND       PRES   REMARKS
PULLMAN        CLOUDY    42  38  85 E10       30.21F                  
LEWISTON, ID   CLOUDY    47  40  76 NE7       30.21F                  
WALLA WALLA    CLOUDY    52  39  61 S8        30.18F                  
PENDLETON, OR  CLOUDY    48  40  73 SE6       30.17F                  
$$